User: anonymous   Login
Location: Karlovy Vary
(50.2170°N, 12.9000°E)
Time: 13:15:36
(UTC+01:00)
Language:

ISS - Orbit

View from above orbital plane
View from above orbital plane
View from above satellite
View from above satellite

Ground track
Ground track

The orbit data is extracted from the following two-line orbital elements,

1 25544U 98067A   16339.71067356  .00016717  00000-0  10270-3 0  9127
2 25544  51.6435 287.7424 0006377 293.9863  66.0622 15.53823722 31502
Epoch (UTC): 04 December 2016 17:03:22
Eccentricity: 0.0006377
inclination: 51.6435°
perigee height: 401 km
apogee height: 410 km
right ascension of ascending node: 287.7424°
argument of perigee: 293.9863°
revolutions per day: 15.53823722
mean anomaly at epoch: 66.0622°
orbit number at epoch: 3150

The dashed part of the orbit path shows where the satellite is in the earth's shadow,  

DLR